PBO Station Position Time Series. Reference Frame : NAM14
Format Version,1.1.1
4-character ID,PALG
Station name,Pala_GPS
Begin Date, 2015-06-17
End Date, 2023-06-26
Release Date, 2023-06-27
Reference position, 33.3890180977 North Latitude, -117.0317814764 East Longitude, 528.81464 meters elevation,
Date, North (mm), East (mm), Vertical (mm), North Std. Deviation (mm), East Std. Deviation (mm),              Vertical Std. Deviation (mm), Quality,
2015-06-17,0.00, 0.00, 0.00, 1.85, 1.60, 7.08, repro,
2015-06-18,-0.41, 1.67, -1.30, 1.89, 1.65, 7.36, repro,
2015-06-19,-0.06, 0.22, 7.04, 1.86, 1.61, 7.21, repro,
2015-06-20,0.23, 1.14, 6.68, 1.83, 1.56, 7.03, repro,
2015-06-21,-0.27, 0.56, 8.89, 1.82, 1.56, 7.00, repro,
2015-06-22,-1.52, 0.18, 7.58, 1.83, 1.55, 6.99, repro,
2015-06-23,-0.22, 0.43, 7.58, 1.94, 1.60, 7.32, repro,
2015-06-24,-0.96, 0.31, 5.85, 1.89, 1.57, 7.15, repro,
2015-06-25,-1.68, -0.25, 4.62, 1.88, 1.60, 7.16, repro,
2015-06-26,-1.43, -1.29, 8.55, 1.91, 1.61, 7.31, repro,
2015-06-27,-1.78, -0.66, 1.44, 1.83, 1.56, 6.98, repro,
2015-06-28,-2.76, -0.77, 9.33, 1.82, 1.56, 6.95, repro,
2015-06-29,-0.37, -1.91, 6.67, 1.86, 1.60, 7.08, repro,
2015-06-30,-4.83, 1.57, 9.73, 2.12, 1.70, 8.13, repro,
2015-07-01,-2.89, -1.16, 12.84, 1.91, 1.59, 7.31, repro,
2015-07-02,-1.19, -0.16, 5.39, 1.89, 1.58, 7.25, repro,
2015-07-03,-2.12, -0.09, 8.33, 1.87, 1.56, 7.12, repro,
2015-07-04,-2.79, -1.09, 5.31, 1.84, 1.56, 7.02, repro,
2015-07-05,-2.45, 1.41, 3.12, 1.84, 1.56, 7.06, repro,
2015-07-06,-2.92, -0.43, 10.38, 1.85, 1.57, 7.07, repro,
2015-07-07,-2.49, -0.74, 12.30, 1.84, 1.56, 6.99, repro,
2015-07-08,-1.72, -1.32, 5.00, 1.83, 1.55, 6.94, repro,
2015-07-09,-1.18, -0.03, 13.43, 1.85, 1.56, 7.02, repro,
2015-07-10,-1.77, 0.44, 12.49, 1.87, 1.61, 7.15, repro,
2015-07-11,-2.52, -0.15, 8.08, 1.88, 1.62, 7.18, repro,
2015-07-12,-1.53, 0.00, 3.83, 1.84, 1.57, 7.06, repro,
2015-07-13,-1.91, 0.32, 2.33, 1.84, 1.55, 6.97, repro,
2015-07-14,-1.61, 0.24, 3.84, 1.83, 1.55, 6.94, repro,
2015-07-15,-1.92, 0.59, 8.25, 1.83, 1.56, 7.01, repro,
2015-07-16,-2.64, 0.79, 9.06, 1.89, 1.66, 7.26, repro,
2015-07-17,-2.40, 1.04, 3.48, 1.84, 1.57, 7.03, repro,
2015-07-18,-1.26, 1.41, -2.61, 1.83, 1.56, 6.98, repro,
2015-07-19,-0.75, 3.57, 11.14, 1.93, 1.66, 7.23, repro,
2015-07-20,-2.09, 0.33, 5.28, 1.84, 1.57, 7.02, repro,
2015-07-21,-1.96, 0.23, 12.63, 1.83, 1.56, 6.96, repro,
2015-07-22,-4.06, 0.19, 12.66, 1.87, 1.59, 7.11, repro,
2015-07-23,-1.21, 1.01, 15.16, 1.84, 1.56, 7.04, repro,
2015-07-24,-2.00, 0.80, 1.54, 1.83, 1.56, 6.99, repro,
2015-07-25,-1.33, 0.49, 10.87, 1.86, 1.58, 7.04, repro,
2015-07-26,-3.20, 0.72, 12.16, 1.83, 1.56, 6.95, repro,
2015-07-27,-0.50, 1.26, 3.05, 1.83, 1.56, 6.97, repro,
2015-07-28,-1.36, -0.04, 10.35, 1.91, 1.59, 7.31, repro,
2015-07-29,-2.40, -0.56, 12.96, 1.91, 1.59, 7.30, repro,
2015-07-30,-2.84, 2.02, 18.44, 1.87, 1.61, 7.28, repro,
2015-07-31,-3.16, -0.05, 9.46, 1.83, 1.55, 6.95, repro,
2015-08-01,-2.70, 0.77, 10.02, 1.83, 1.56, 6.98, repro,
2015-08-02,-1.09, 0.17, 0.80, 1.85, 1.57, 7.07, repro,
2015-08-03,-0.69, 0.52, 9.26, 1.85, 1.59, 7.14, repro,
2015-08-04,-2.55, -0.33, 12.29, 1.88, 1.63, 7.34, repro,
2015-08-05,-2.48, 0.68, 11.85, 1.85, 1.60, 7.12, repro,
2015-08-06,-1.93, 0.30, 11.36, 2.07, 1.69, 7.62, repro,
2015-08-07,-2.38, 1.89, 12.16, 1.88, 1.66, 7.29, repro,
2015-08-08,-0.37, 0.17, 20.21, 1.90, 1.63, 7.29, repro,
2015-08-09,-1.34, 0.22, 10.85, 1.95, 1.68, 7.49, repro,
2015-08-10,-2.10, 0.34, 9.66, 1.84, 1.60, 7.11, repro,
2015-08-11,-1.68, -0.82, 12.91, 1.85, 1.61, 7.19, repro,
2015-08-12,-2.56, -0.87, 9.27, 1.98, 1.68, 7.55, repro,
2015-08-13,-1.68, 0.94, 14.92, 1.86, 1.61, 7.20, repro,
2015-08-14,-0.13, 0.52, 8.24, 1.86, 1.62, 7.23, repro,
2015-08-15,-1.51, -0.10, 12.34, 1.85, 1.59, 7.13, repro,
2015-08-16,-1.80, 0.21, 20.52, 1.82, 1.58, 7.06, repro,
2015-08-17,-1.26, -0.49, 15.65, 1.83, 1.58, 7.06, repro,
2015-08-18,-2.12, -0.85, 12.88, 1.83, 1.57, 7.05, repro,
2015-08-19,-1.23, -0.17, 16.78, 1.83, 1.58, 7.08, repro,
2015-08-20,-0.87, 0.26, 9.19, 1.83, 1.57, 7.08, repro,
2015-08-21,-2.24, 0.16, 13.16, 1.84, 1.58, 7.12, repro,
2015-08-22,-1.56, -0.44, 6.45, 1.83, 1.59, 7.13, repro,
2015-08-23,-1.02, -0.62, 12.22, 1.87, 1.59, 7.16, repro,
2015-08-24,-1.89, 0.25, 6.09, 1.84, 1.58, 7.08, repro,
2015-08-25,-1.07, 0.02, 13.70, 1.86, 1.62, 7.27, repro,
2015-08-26,-2.37, 1.10, 10.32, 1.84, 1.58, 7.10, repro,
2015-08-27,-1.27, 1.27, 12.09, 1.82, 1.58, 7.05, repro,
2015-08-28,-1.97, -0.13, 11.00, 1.82, 1.57, 7.03, repro,
2015-08-29,-1.49, 1.79, 16.05, 1.83, 1.57, 7.05, repro,
2015-08-30,-3.03, -1.55, 21.64, 1.82, 1.58, 7.06, repro,
2015-08-31,0.57, 0.37, 12.35, 1.84, 1.58, 7.10, repro,
2015-09-01,-2.81, 1.06, 12.21, 1.88, 1.61, 7.22, repro,
2015-09-02,-2.16, -1.34, 16.72, 1.88, 1.61, 7.25, repro,
2015-09-03,-1.26, -1.01, 12.59, 1.85, 1.63, 7.20, repro,
2015-09-04,-1.44, 0.26, 12.98, 1.82, 1.58, 7.08, repro,
2015-09-05,-3.02, -0.80, 11.51, 1.85, 1.59, 7.18, repro,
2015-09-06,-1.83, 0.53, 9.24, 1.87, 1.60, 7.20, repro,
2015-09-07,-2.77, 0.00, 13.97, 1.83, 1.59, 7.13, repro,
2015-09-08,-1.48, 0.54, 12.80, 1.86, 1.64, 7.23, repro,
2015-09-09,-3.11, 1.24, 7.63, 2.23, 1.76, 8.15, repro,
2015-09-10,-1.93, -0.13, 12.89, 1.84, 1.59, 7.18, repro,
2015-09-11,-2.69, -1.71, 11.73, 1.90, 1.64, 7.34, repro,
2015-09-12,-2.17, 0.75, 10.92, 1.90, 1.63, 7.22, repro,
2015-09-13,-2.58, 2.14, 14.73, 1.84, 1.59, 7.13, repro,
2015-09-14,-2.36, -0.45, 10.87, 1.87, 1.64, 7.25, repro,
2015-09-15,-1.63, 0.96, 15.31, 1.96, 1.70, 7.66, repro,
2015-09-16,-1.25, -0.25, 14.39, 1.99, 1.72, 7.98, repro,
2015-09-17,-1.59, 0.27, 14.36, 1.85, 1.64, 7.27, repro,
2015-09-18,-1.19, 1.10, 5.68, 1.90, 1.65, 7.43, repro,
2015-09-19,0.07, 1.03, 11.82, 1.87, 1.67, 7.41, repro,
2015-09-20,-1.50, -0.17, 7.69, 1.88, 1.67, 7.41, repro,
2015-09-21,-4.54, 0.43, 17.45, 1.91, 1.72, 7.68, repro,
2015-09-22,-3.18, 0.24, 19.03, 1.91, 1.70, 7.67, repro,
2015-09-23,-1.84, 1.45, -0.59, 1.88, 1.67, 7.44, repro,
2015-09-24,0.97, 2.68, 5.63, 1.92, 1.73, 7.63, repro,
2015-09-25,-0.78, 1.28, 0.80, 1.92, 1.74, 7.70, repro,
2015-09-26,-1.88, 0.58, 8.37, 1.96, 1.78, 7.78, repro,
2015-09-27,0.37, 1.68, 10.07, 1.92, 1.73, 7.63, repro,
2015-09-28,-0.33, 0.49, 9.53, 2.10, 1.83, 8.05, repro,
2015-09-29,-2.01, 1.10, 5.49, 2.05, 1.90, 8.11, repro,
2015-09-30,-0.67, 1.42, 13.52, 2.17, 1.99, 8.80, repro,
2015-10-01,-0.51, 1.57, 5.97, 2.09, 1.93, 8.43, repro,
2015-10-02,-1.69, 2.41, 4.53, 2.03, 1.84, 8.11, repro,
2015-10-03,-1.26, 0.09, 9.06, 2.51, 2.31, 10.06, repro,
2015-10-04,-2.29, 1.36, 21.89, 2.23, 1.91, 8.48, repro,
2015-10-05,-0.74, 1.40, 14.54, 2.02, 1.83, 8.04, repro,
2015-10-06,-0.74, 1.66, 7.55, 2.02, 1.82, 7.92, repro,
2015-10-07,-0.79, 1.76, 0.04, 2.01, 1.82, 7.85, repro,
2015-10-08,-0.53, 0.97, 3.30, 2.16, 1.91, 8.45, repro,
2015-10-09,2.45, 2.46, 8.98, 2.00, 1.78, 7.85, repro,
2015-10-10,0.95, 2.83, 12.06, 2.02, 1.80, 7.87, repro,
2015-10-11,-1.67, 1.63, 15.52, 1.98, 1.77, 7.78, repro,
2015-10-12,-2.22, 2.47, 10.11, 2.01, 1.82, 8.11, repro,
2015-10-13,-0.68, 2.02, 14.16, 2.33, 2.06, 9.19, repro,
2015-10-14,-1.07, 2.48, 16.02, 2.20, 2.03, 8.91, repro,
2015-10-15,-1.40, -0.98, 20.43, 2.21, 1.95, 8.71, repro,
2015-10-16,-1.58, 0.62, 2.84, 2.09, 1.87, 8.24, repro,
2015-10-17,-3.16, 1.90, 13.24, 2.06, 1.85, 8.20, repro,
2015-10-18,-2.49, 1.41, 16.42, 2.15, 1.96, 8.58, repro,
2015-10-19,-2.21, -0.71, 11.61, 2.04, 1.81, 7.98, repro,
2015-10-20,-3.18, 1.01, 15.82, 2.39, 2.20, 9.59, repro,
2015-10-21,-2.34, 0.59, 7.00, 2.21, 2.03, 8.94, repro,
2015-10-22,-0.54, 1.10, 9.13, 2.19, 2.05, 8.84, repro,
2015-10-23,-1.51, 3.14, 15.74, 2.26, 2.11, 9.21, repro,
2015-10-24,-2.13, 1.93, 5.81, 2.17, 2.10, 9.11, repro,
2015-10-25,-2.09, 1.69, 13.99, 2.18, 1.98, 8.61, repro,
2015-10-26,-2.37, -0.14, 9.91, 2.23, 2.02, 9.11, repro,
2015-10-27,-1.05, 1.80, 19.70, 2.18, 2.00, 8.73, repro,
2015-10-28,-1.29, 2.01, 16.79, 2.19, 2.00, 8.71, repro,
2015-10-29,-0.37, 3.03, 25.31, 2.13, 2.00, 8.65, repro,
2015-10-30,-0.50, 0.05, 10.70, 2.16, 1.98, 8.73, repro,
2015-10-31,-1.67, 1.11, 12.31, 2.14, 2.01, 8.72, repro,
2015-11-01,-1.20, 1.90, 11.81, 2.19, 2.08, 8.99, repro,
2015-11-02,-0.79, 1.55, 12.95, 2.26, 2.10, 9.11, repro,
2015-11-03,-2.97, -0.64, 15.81, 2.38, 2.29, 10.02, repro,
2015-11-04,-2.71, 0.13, 13.10, 2.96, 3.16, 12.60, repro,
2015-11-05,-1.17, 1.07, 17.75, 2.36, 2.36, 9.83, repro,
2015-11-06,0.34, -0.30, 9.47, 2.41, 2.29, 9.72, repro,
2015-11-07,-0.80, 0.46, 9.88, 2.43, 2.24, 9.89, repro,
2015-11-08,0.21, 0.07, 11.72, 2.44, 2.24, 9.89, repro,
2015-11-09,-0.75, -0.92, 12.68, 2.63, 2.50, 10.64, repro,
2015-11-10,-2.67, -0.62, 16.97, 2.41, 2.32, 9.60, repro,
2015-11-11,-1.94, 1.32, 8.86, 2.37, 2.30, 9.83, repro,
2015-11-12,-0.71, 1.23, 6.87, 2.48, 2.29, 9.94, repro,
2015-11-13,-0.65, 0.65, 19.03, 2.61, 2.45, 10.32, repro,
2015-11-14,-0.77, 0.43, 10.14, 2.60, 2.46, 10.16, repro,
2015-11-15,-1.66, 0.89, 19.59, 2.52, 2.72, 10.96, repro,
2015-11-16,-2.89, -0.18, 18.32, 2.46, 2.46, 10.40, repro,
2015-11-17,-1.40, 1.38, 7.33, 2.37, 2.34, 10.36, repro,
2015-11-18,-1.47, -0.08, 15.94, 2.64, 2.45, 10.46, repro,
2015-11-19,-1.05, -0.07, 16.55, 1.83, 1.63, 7.23, repro,
2015-11-20,-0.52, 0.69, 12.68, 1.83, 1.62, 7.16, repro,
2015-11-21,-0.76, 1.46, 9.11, 1.81, 1.61, 7.10, repro,
2015-11-22,-0.86, 1.26, 11.84, 1.82, 1.61, 7.12, repro,
2015-11-23,-0.80, 0.55, 10.03, 1.83, 1.61, 7.17, repro,
2015-11-24,-0.18, 1.89, 12.78, 1.83, 1.62, 7.23, repro,
2015-11-25,-1.68, -1.35, 18.21, 1.85, 1.65, 7.34, repro,
2015-11-26,-0.07, -0.31, 9.29, 1.84, 1.66, 7.31, repro,
2015-11-27,-0.39, 0.72, 6.01, 1.80, 1.61, 7.09, repro,
2015-11-28,-0.13, 0.28, 2.76, 1.82, 1.62, 7.16, repro,
2015-11-29,-1.21, 1.07, 7.53, 1.83, 1.62, 7.19, repro,
2015-11-30,-0.39, 1.08, 7.40, 1.84, 1.63, 7.25, repro,
2015-12-01,-0.10, 1.31, 4.58, 1.82, 1.62, 7.16, repro,
2015-12-02,-0.51, 1.63, 3.83, 1.82, 1.62, 7.15, repro,
2015-12-03,-0.77, 1.09, 5.20, 1.84, 1.64, 7.37, repro,
2015-12-04,-0.76, -0.43, 5.45, 1.84, 1.64, 7.27, repro,
2015-12-05,-0.77, 1.32, 2.23, 1.82, 1.59, 7.19, repro,
2015-12-06,-1.55, 1.95, 4.92, 1.82, 1.60, 7.22, repro,
2015-12-07,-0.48, 1.08, 6.54, 1.84, 1.64, 7.34, repro,
2015-12-08,-1.32, 1.24, 9.68, 1.82, 1.65, 7.30, repro,
2015-12-09,-0.47, 0.42, 11.07, 1.84, 1.65, 7.34, repro,
2015-12-10,-1.77, 1.08, 13.17, 1.85, 1.68, 7.40, repro,
2015-12-11,-2.23, -2.58, 19.86, 1.85, 1.69, 7.42, repro,
2015-12-12,-1.26, 0.96, 7.30, 1.83, 1.65, 7.33, repro,
2015-12-13,-1.30, 0.65, 10.89, 1.82, 1.64, 7.28, repro,
2015-12-14,-3.39, -0.85, 13.91, 1.80, 1.59, 7.10, repro,
2015-12-15,-0.08, 1.38, 7.49, 1.82, 1.61, 7.14, repro,
2015-12-16,-0.91, 1.34, 12.23, 1.82, 1.60, 7.19, repro,
2015-12-17,-2.21, 2.27, 9.89, 1.88, 1.61, 7.40, repro,
2015-12-18,0.21, 1.55, 7.08, 1.86, 1.60, 7.34, repro,
2015-12-19,-0.57, 1.20, 6.22, 1.79, 1.58, 7.06, repro,
2015-12-20,0.03, -0.72, 7.75, 1.82, 1.60, 7.16, repro,
2015-12-21,-0.22, 0.82, 3.58, 1.81, 1.57, 7.05, repro,
2015-12-22,-1.13, -0.16, 21.04, 1.82, 1.59, 7.12, repro,
2015-12-23,-2.16, 0.15, 23.96, 1.81, 1.58, 7.11, repro,
2015-12-24,1.22, 1.34, 15.72, 1.80, 1.59, 7.10, repro,
2015-12-25,0.20, 3.13, 8.83, 1.80, 1.59, 7.07, repro,
2015-12-26,0.41, 2.38, 0.23, 1.80, 1.58, 7.06, repro,
2015-12-27,1.16, 2.86, 5.57, 1.81, 1.58, 7.07, repro,
2015-12-28,0.17, 2.67, 2.57, 1.81, 1.58, 7.08, repro,
2015-12-29,0.61, 2.58, 5.73, 1.82, 1.59, 7.14, repro,
2015-12-30,0.78, 2.62, 3.87, 1.81, 1.59, 7.07, repro,
2015-12-31,1.86, 2.51, 5.95, 1.83, 1.60, 7.20, repro,
2016-01-01,0.68, 2.75, 8.26, 1.81, 1.58, 7.08, repro,
2016-01-02,0.94, 4.04, 9.95, 2.03, 1.69, 7.77, repro,
2016-01-03,0.88, 3.13, 6.90, 1.82, 1.59, 7.10, repro,
2016-01-04,0.31, 2.61, 8.25, 1.81, 1.58, 7.05, repro,
2016-01-05,2.22, 1.71, 10.03, 1.83, 1.59, 7.12, repro,
2016-01-06,-0.48, 0.82, 11.01, 1.85, 1.64, 7.24, repro,
2016-01-07,1.81, 3.97, 5.70, 1.83, 1.61, 7.16, repro,
2016-01-08,2.03, 5.12, 0.11, 1.86, 1.65, 7.30, repro,
2016-01-09,2.79, 5.66, -2.72, 1.84, 1.62, 7.18, repro,
2016-01-10,2.70, 6.17, 1.84, 1.83, 1.60, 7.18, repro,
2016-01-11,2.04, 5.30, -3.29, 1.82, 1.60, 7.14, repro,
2016-01-12,1.39, 4.25, 1.22, 1.81, 1.60, 7.13, repro,
2016-01-13,2.26, 5.10, 9.58, 1.81, 1.58, 7.04, repro,
2016-01-14,2.88, 5.11, -0.48, 1.80, 1.58, 7.04, repro,
2016-01-15,2.45, 3.93, 1.80, 1.85, 1.62, 7.13, repro,
2016-01-16,1.96, 3.58, 6.66, 1.82, 1.61, 7.11, repro,
2016-01-17,2.48, 3.82, 2.05, 1.81, 1.60, 7.11, repro,
2016-01-18,2.42, 5.06, 7.12, 1.81, 1.58, 7.05, repro,
2016-01-19,2.93, 5.58, 0.54, 1.81, 1.58, 7.02, repro,
2016-01-20,3.77, 4.75, 1.69, 1.81, 1.58, 7.06, repro,
2016-01-21,2.24, 4.90, -1.39, 1.83, 1.59, 7.13, repro,
2016-01-22,2.23, 4.27, 0.64, 1.82, 1.59, 7.07, repro,
2016-01-23,2.32, 3.68, 5.30, 1.82, 1.58, 7.05, repro,
2016-01-24,1.74, 3.71, 3.16, 1.92, 1.63, 7.38, repro,
2016-01-25,2.90, 3.37, 4.89, 1.84, 1.59, 7.18, repro,
2016-01-26,3.61, 4.46, 3.54, 1.86, 1.62, 7.29, repro,
2016-01-27,2.60, 4.06, -0.14, 1.85, 1.60, 7.21, repro,
2016-01-28,2.83, 2.96, 1.80, 1.84, 1.60, 7.22, repro,
2016-01-29,2.19, 4.55, 6.15, 1.89, 1.61, 7.39, repro,
2016-01-30,3.65, 3.23, 15.82, 1.86, 1.64, 7.28, repro,
2016-01-31,1.62, 2.84, 19.57, 1.94, 1.64, 7.53, repro,
2016-02-01,3.11, 4.09, 11.85, 1.87, 1.61, 7.25, repro,
2016-02-02,2.32, 3.83, 2.06, 1.85, 1.61, 7.24, repro,
2016-02-03,2.70, 4.23, 2.59, 1.84, 1.61, 7.25, repro,
2016-02-04,2.54, 4.49, 3.52, 1.84, 1.60, 7.20, repro,
2016-02-05,4.02, 5.18, 0.96, 1.82, 1.61, 7.21, repro,
2016-02-06,2.68, 5.07, 2.30, 1.85, 1.61, 7.20, repro,
2016-02-07,2.74, 4.21, 3.84, 1.84, 1.60, 7.17, repro,
2016-02-08,3.53, 6.02, -2.58, 1.83, 1.60, 7.19, repro,
2016-02-09,3.92, 4.73, 2.18, 1.83, 1.60, 7.16, repro,
2016-02-10,2.75, 5.04, -0.26, 1.83, 1.60, 7.17, repro,
2016-02-11,3.61, 5.41, 4.21, 1.85, 1.59, 7.18, repro,
2016-02-12,3.73, 4.81, 4.42, 1.84, 1.59, 7.13, repro,
2016-02-13,2.35, 4.21, 1.06, 1.85, 1.60, 7.23, repro,
2016-02-14,2.08, 3.99, 7.28, 1.83, 1.59, 7.15, repro,
2016-02-15,2.94, 4.96, 7.86, 1.82, 1.59, 7.09, repro,
2016-02-16,2.53, 3.38, 4.42, 1.84, 1.59, 7.14, repro,
2016-02-17,2.94, 3.85, 11.88, 1.85, 1.60, 7.19, repro,
2016-02-18,3.48, 6.19, 13.02, 1.86, 1.59, 7.17, repro,
2016-02-19,1.67, 4.09, 3.90, 1.84, 1.60, 7.14, repro,
2016-02-20,3.47, 5.36, 5.95, 1.83, 1.59, 7.10, repro,
2016-02-21,2.71, 5.35, 0.97, 1.84, 1.59, 7.18, repro,
2016-02-22,2.95, 5.40, -1.80, 1.85, 1.61, 7.16, repro,
2016-02-23,1.88, 3.85, 8.88, 1.84, 1.58, 7.11, repro,
2016-02-24,2.02, 4.36, 7.91, 1.85, 1.59, 7.16, repro,
2016-02-25,2.50, 5.34, 5.36, 1.83, 1.59, 7.10, repro,
2016-02-26,3.34, 5.20, 4.29, 1.89, 1.64, 7.42, repro,
2016-02-27,4.04, 4.92, 6.39, 1.85, 1.61, 7.19, repro,
2016-02-28,2.70, 4.79, 6.28, 1.87, 1.64, 7.29, repro,
2016-02-29,2.98, 5.33, 5.17, 1.86, 1.63, 7.24, repro,
2016-03-01,2.59, 5.47, 9.33, 1.83, 1.59, 7.10, repro,
2016-03-02,2.17, 5.46, 3.08, 1.84, 1.59, 7.11, repro,
2016-03-03,2.63, 4.75, 3.24, 1.86, 1.60, 7.17, repro,
2016-03-04,2.00, 5.26, 3.20, 1.87, 1.65, 7.28, repro,
2016-03-05,2.85, 6.03, 4.06, 1.83, 1.59, 7.05, repro,
2016-03-06,2.48, 4.86, 16.28, 1.84, 1.61, 7.13, repro,
2016-03-07,1.83, 5.23, 5.33, 1.87, 1.66, 7.29, repro,
2016-03-08,2.96, 4.82, 3.46, 1.92, 1.67, 7.38, repro,
2016-03-09,2.17, 4.83, 5.14, 1.85, 1.60, 7.14, repro,
2016-03-10,3.96, 6.09, 2.55, 1.81, 1.58, 6.88, repro,
2016-03-11,0.75, 6.16, 4.45, 1.80, 1.57, 6.87, repro,
2016-03-12,0.31, 3.16, 5.30, 1.80, 1.57, 6.89, repro,
2016-03-13,2.23, 5.50, 3.20, 1.81, 1.59, 6.93, repro,
2016-03-14,1.21, 5.28, 10.45, 1.85, 1.64, 7.03, repro,
2016-03-15,2.93, 5.47, -0.89, 1.85, 1.64, 7.02, repro,
2016-03-16,0.92, 4.49, 7.60, 1.86, 1.68, 7.09, repro,
2016-03-17,3.20, 5.89, 10.48, 1.86, 1.64, 7.11, repro,
2016-03-18,2.45, 6.16, -0.39, 1.92, 1.69, 7.31, repro,
2016-03-19,2.74, 5.30, -0.01, 1.84, 1.60, 7.02, repro,
2016-03-20,2.05, 6.67, 0.73, 1.81, 1.57, 6.87, repro,
2016-03-21,3.20, 6.82, 1.03, 1.83, 1.59, 6.98, repro,
2016-03-22,0.97, 6.18, 8.87, 1.80, 1.57, 6.84, repro,
2016-03-23,0.80, 4.38, 8.51, 1.80, 1.57, 6.86, repro,
2016-03-24,2.02, 5.87, 5.21, 1.81, 1.58, 6.92, repro,
2016-03-25,1.97, 5.75, 11.09, 1.81, 1.59, 6.95, repro,
2016-03-26,0.94, 7.43, 3.96, 1.91, 1.79, 7.52, repro,
2016-03-27,2.20, 4.41, 8.16, 1.81, 1.59, 6.91, repro,
2016-03-28,1.36, 5.40, 14.07, 1.82, 1.59, 6.95, repro,
2016-03-29,-0.54, 3.34, 17.73, 1.85, 1.60, 7.13, repro,
2016-03-30,-0.20, 4.50, 12.47, 1.81, 1.59, 6.96, repro,
2016-03-31,1.72, 6.98, 2.06, 1.81, 1.60, 6.96, repro,
2016-04-01,1.29, 7.03, 8.40, 1.80, 1.59, 6.87, repro,
2016-04-02,1.78, 6.77, 5.07, 1.81, 1.59, 6.90, repro,
2016-04-03,0.67, 6.32, 5.99, 1.80, 1.58, 6.88, repro,
2016-04-04,2.34, 6.83, 5.91, 1.80, 1.59, 6.91, repro,
2016-04-05,1.85, 5.21, 6.40, 1.81, 1.60, 6.94, repro,
2016-04-06,2.12, 7.76, 5.01, 1.80, 1.60, 6.93, repro,
2016-04-07,1.37, 5.74, 7.58, 1.83, 1.64, 7.11, repro,
2016-04-08,-0.60, 4.39, 7.14, 1.82, 1.58, 6.89, repro,
2016-04-09,0.67, 5.68, 8.32, 1.80, 1.58, 6.88, repro,
2016-04-10,-0.58, 6.65, 10.94, 1.80, 1.59, 6.93, repro,
2016-04-11,0.33, 6.31, 1.14, 1.80, 1.59, 6.94, repro,
2016-04-12,1.08, 5.49, 1.22, 1.81, 1.60, 6.96, repro,
2016-04-13,1.53, 6.08, 2.78, 1.82, 1.58, 6.91, repro,
2016-04-14,1.08, 4.96, 13.20, 1.80, 1.59, 6.89, repro,
2016-04-15,0.96, 6.29, 11.76, 1.80, 1.58, 6.89, repro,
2016-04-16,-0.24, 6.12, 8.26, 1.80, 1.59, 6.91, repro,
2016-04-17,2.01, 5.57, 7.11, 1.85, 1.64, 7.10, repro,
2016-04-18,1.33, 4.89, 8.26, 1.81, 1.60, 6.95, repro,
2016-04-19,1.65, 5.69, 8.51, 1.84, 1.59, 7.10, repro,
2016-04-20,0.91, 4.87, 9.19, 1.86, 1.59, 7.09, repro,
2016-04-21,-0.18, 5.69, 6.45, 1.79, 1.59, 6.90, repro,
2016-04-22,1.10, 4.54, 7.23, 1.81, 1.60, 7.04, repro,
2016-04-23,0.61, 4.49, 7.81, 1.81, 1.60, 6.98, repro,
2016-04-24,0.29, 3.80, 10.46, 1.81, 1.59, 6.96, repro,
2016-04-25,-1.01, 1.37, 23.82, 1.81, 1.58, 6.92, repro,
2016-04-26,-0.06, 3.20, 8.12, 1.81, 1.59, 6.93, repro,
2016-04-27,-0.51, 3.60, 10.77, 1.81, 1.61, 7.01, repro,
2016-04-28,-1.57, 3.36, 19.19, 1.84, 1.64, 7.13, repro,
2016-04-29,0.51, 4.06, 3.42, 1.82, 1.60, 7.02, repro,
2016-04-30,-1.55, 4.98, 9.72, 1.80, 1.59, 6.95, repro,
2016-05-01,0.74, 4.38, 4.13, 1.81, 1.58, 6.90, repro,
2016-05-02,0.15, 2.64, 8.08, 1.91, 1.67, 7.43, repro,
2016-05-03,0.07, 4.92, 1.19, 1.82, 1.60, 7.02, repro,
2016-05-04,0.08, 3.41, 2.10, 1.86, 1.62, 7.14, repro,
2016-05-05,0.54, 3.79, 0.51, 1.98, 1.72, 7.69, repro,
2016-05-06,-0.84, 3.31, 8.34, 1.89, 1.61, 7.23, repro,
2016-05-07,-0.96, 3.57, 10.70, 1.84, 1.64, 7.07, repro,
2016-05-08,-1.65, 3.07, 6.44, 1.84, 1.63, 7.07, repro,
2016-05-09,-1.03, 2.79, 8.69, 1.81, 1.60, 6.98, repro,
2016-05-10,-1.04, 4.55, 2.46, 1.81, 1.58, 6.93, repro,
2016-05-11,1.38, 4.28, -3.46, 1.84, 1.62, 7.01, repro,
2016-05-12,-0.81, 2.69, 6.55, 1.82, 1.62, 7.04, repro,
2016-05-13,-1.61, 3.67, 5.32, 1.81, 1.59, 6.92, repro,
2016-05-14,-1.96, 2.85, 0.95, 1.80, 1.58, 6.90, repro,
2016-05-15,-2.12, 3.35, 10.32, 1.82, 1.60, 7.01, repro,
2016-05-16,-1.65, 4.39, 11.06, 1.81, 1.59, 6.98, repro,
2016-05-17,-1.38, 4.53, 9.09, 1.80, 1.57, 6.89, repro,
2016-05-18,0.17, 4.65, -0.09, 1.80, 1.59, 6.94, repro,
2016-05-19,-0.22, 4.15, 5.03, 1.84, 1.61, 7.09, repro,
2016-05-20,0.38, 4.17, 8.25, 1.81, 1.59, 6.93, repro,
2016-05-21,-0.98, 3.02, 5.75, 1.80, 1.58, 6.91, repro,
2016-05-22,-0.45, 3.85, 2.57, 1.80, 1.57, 6.89, repro,
2016-05-23,-0.98, 3.71, 1.57, 1.80, 1.58, 6.90, repro,
2016-05-24,-1.69, 2.87, 2.22, 1.79, 1.57, 6.85, repro,
2016-05-25,-1.03, 3.87, 8.29, 1.80, 1.59, 6.93, repro,
2016-05-26,-1.42, 4.64, 1.80, 1.82, 1.58, 6.91, repro,
2016-05-27,-0.18, 4.43, -1.87, 1.89, 1.61, 7.17, repro,
2016-05-28,-1.01, 3.90, 6.89, 1.86, 1.60, 7.03, repro,
2016-05-29,-2.21, 2.93, 4.09, 1.80, 1.57, 6.86, repro,
2016-05-30,-0.78, 3.46, 3.75, 1.82, 1.58, 6.91, repro,
2016-05-31,-2.00, 2.63, 4.04, 1.81, 1.59, 6.92, repro,
2016-06-01,-1.36, 3.01, -0.16, 1.81, 1.59, 6.92, repro,
2016-06-02,-1.21, 4.66, -4.85, 1.81, 1.59, 6.94, repro,
2016-06-03,-1.19, 4.24, 7.26, 1.85, 1.67, 7.23, repro,
2016-06-04,-1.12, 3.42, -0.70, 1.81, 1.58, 6.91, repro,
2016-06-05,-1.70, 3.03, 7.89, 1.80, 1.58, 6.90, repro,
2016-06-06,-0.54, 2.95, -0.74, 1.81, 1.59, 7.06, repro,
2016-06-07,-0.80, 3.31, 4.81, 1.81, 1.58, 6.94, repro,
2016-06-08,-1.90, 3.53, 4.70, 1.81, 1.59, 6.93, repro,
2016-06-09,-1.83, 3.50, 7.94, 1.81, 1.58, 6.90, repro,
2016-06-10,-0.94, 3.70, 5.02, 1.80, 1.58, 6.89, repro,
2016-06-11,-1.46, 3.57, 5.23, 1.82, 1.59, 6.95, repro,
2016-06-12,0.11, 2.98, -0.16, 1.81, 1.59, 6.94, repro,
2016-06-13,-1.82, 2.96, 2.17, 1.80, 1.59, 6.91, repro,
2016-06-14,-1.59, 3.23, 7.86, 1.81, 1.58, 6.89, repro,
2016-06-15,-1.23, 2.09, 7.65, 1.81, 1.59, 6.92, repro,
2016-06-16,-0.95, 2.99, 1.84, 1.81, 1.58, 6.91, repro,
2016-06-17,-0.94, 2.21, 2.71, 1.80, 1.59, 6.92, repro,
2016-06-18,-1.89, 2.28, 4.13, 1.82, 1.59, 7.00, repro,
2016-06-19,-0.52, 3.31, -0.66, 1.82, 1.59, 6.94, repro,
2016-06-20,-1.02, 3.29, 4.39, 1.81, 1.59, 6.94, repro,
2016-06-21,0.17, 0.80, 6.96, 1.82, 1.59, 6.93, repro,
2016-06-22,-1.41, 2.87, 5.42, 1.82, 1.59, 6.96, repro,
2016-06-23,-1.03, 2.38, 3.88, 1.81, 1.58, 6.92, repro,
2016-06-24,-2.45, 2.03, 5.69, 1.84, 1.60, 6.94, repro,
2016-06-25,-1.11, 3.13, 3.78, 1.85, 1.63, 7.03, repro,
2016-06-26,-1.99, 2.89, 3.88, 2.30, 2.10, 9.00, repro,
2016-06-27,-2.65, 2.10, 1.74, 1.83, 1.59, 6.99, repro,
2016-06-28,-1.68, 2.30, 3.91, 1.83, 1.63, 7.09, repro,
2016-06-29,-1.92, 2.08, -3.02, 1.80, 1.57, 6.84, repro,
2016-06-30,-1.14, 2.50, 6.52, 1.81, 1.57, 6.85, repro,
2016-07-01,-1.97, 1.13, 2.00, 1.81, 1.57, 6.87, repro,
2016-07-02,-2.67, 3.36, 4.63, 1.81, 1.58, 6.91, repro,
2016-07-03,-1.28, 2.16, 1.34, 1.86, 1.59, 7.09, repro,
2016-07-04,-2.13, 2.58, 1.97, 1.87, 1.64, 7.19, repro,
2016-07-05,-2.16, 0.64, 8.84, 1.80, 1.58, 6.86, repro,
2016-07-06,-2.50, 2.16, 3.81, 1.83, 1.62, 6.97, repro,
2016-07-07,-0.50, 1.96, 5.65, 1.80, 1.58, 6.90, repro,
2016-07-08,-0.89, 2.30, 4.62, 1.94, 1.69, 7.42, repro,
2016-07-09,-2.73, 2.28, 1.37, 1.82, 1.60, 7.05, repro,
2016-07-10,-1.25, 2.74, 4.74, 1.79, 1.57, 6.87, repro,
2016-07-11,-2.56, 2.11, 6.53, 1.80, 1.57, 6.88, repro,
2016-07-12,-2.17, 2.85, 5.78, 1.80, 1.57, 6.88, repro,
2016-07-13,-2.07, 1.75, 0.47, 1.86, 1.63, 7.13, repro,
2016-07-14,-3.33, 1.73, 4.22, 1.82, 1.58, 6.92, repro,
2016-07-15,-1.41, 3.60, 5.15, 1.81, 1.58, 6.96, repro,
2016-07-16,-1.08, 2.30, 6.70, 1.80, 1.58, 6.89, repro,
2016-07-17,-2.09, 1.68, 2.68, 1.82, 1.57, 6.90, repro,
2016-07-18,-1.37, 2.41, 7.80, 1.81, 1.58, 6.90, repro,
2016-07-19,-2.06, 2.76, -0.86, 1.82, 1.58, 6.92, repro,
2016-07-20,-1.96, 2.20, 4.78, 1.86, 1.62, 7.09, repro,
2016-07-21,-1.57, 2.53, 11.45, 1.81, 1.58, 6.94, repro,
2016-07-22,-1.94, 3.07, 12.34, 1.85, 1.62, 7.01, repro,
2016-07-23,-1.77, 2.41, 6.00, 1.81, 1.58, 6.90, repro,
2016-07-24,-1.14, 1.74, 8.60, 1.87, 1.63, 7.07, repro,
2016-07-25,-0.50, 2.11, 9.52, 1.84, 1.59, 7.02, repro,
2016-07-26,-2.05, 2.77, 12.34, 1.84, 1.61, 6.97, repro,
2016-07-27,-2.02, 1.91, 11.71, 2.04, 1.75, 7.73, repro,
2016-07-28,-1.52, 2.63, 15.83, 1.81, 1.58, 6.91, repro,
2016-07-29,-1.82, 2.66, 11.14, 1.88, 1.60, 7.16, repro,
2016-07-30,-1.60, 1.44, 13.97, 1.83, 1.59, 7.01, repro,
2016-07-31,-2.47, 2.74, 12.31, 1.82, 1.57, 6.96, repro,
2016-08-01,-0.78, 2.62, 6.60, 1.80, 1.57, 6.91, repro,
2016-08-02,-1.51, 2.94, 3.83, 1.80, 1.57, 6.89, repro,
2016-08-03,-3.25, 2.16, 5.94, 1.80, 1.58, 6.95, repro,
2016-08-04,-3.15, 2.03, 4.86, 1.81, 1.58, 6.97, repro,
2016-08-06,-0.85, 1.36, 8.82, 1.84, 1.62, 7.06, repro,
2016-08-07,-2.35, 0.53, 8.50, 1.80, 1.57, 6.93, repro,
2016-08-08,-1.09, 1.88, 9.32, 1.81, 1.57, 6.92, repro,
2016-08-09,-0.89, 1.32, 3.21, 1.81, 1.58, 6.93, repro,
2016-08-10,-2.25, 2.10, 7.28, 1.81, 1.58, 6.97, repro,
2016-08-11,-2.58, 1.91, -0.34, 1.81, 1.58, 6.97, repro,
2016-08-12,-3.87, 1.75, 3.46, 1.81, 1.57, 6.92, repro,
2016-08-13,-1.64, 2.69, 3.39, 1.79, 1.56, 6.87, repro,
2016-08-14,-1.57, 2.90, 4.09, 1.82, 1.58, 6.99, repro,
2016-08-15,-0.97, 2.15, 12.02, 1.80, 1.57, 6.87, repro,
2016-08-16,-0.71, 1.12, 10.77, 1.84, 1.63, 7.11, repro,